Regional Weather Roundup
Issued by NWS

Home | Current Version | Previous Version | Text Only | Print | Product List | Glossary Off
Versions: 1 2 3 4 5 6 7 8 9 10 11 12 13 14 15 16 17 18 19 20 21 22 23 24 25 26 27 28 29 30 31 32 33 34 35 36 37 38 39 40 41 42 43 44 45 46 47 48 49 50

000
ASUS44 KMEG 282010
RWRTN
TENNESSEE HOURLY STATE WEATHER ROUNDUP
NATIONAL WEATHER SERVICE MEMPHIS TN
300 PM CDT THU MAY 28 2015

TNZ002-004-019-021-049-052-054-088>092-282100-
WEST TENNESSEE

CITY           SKY/WX    TMP DP  RH WIND       PRES   REMARKS
MEMPHIS INTL   PTSUNNY   81  64  57 CALM      30.12F
NWS MEMPHIS      N/A     83 N/A N/A MISG        N/A
JACKSON        CLOUDY    78  66  66 VRB5      30.14F
DYERSBURG      PTSUNNY   79  57  47 S3        30.14F
PARIS          MOSUNNY   81  64  57 S9        30.14F
LEXINGTON      MOSUNNY   81  68  65 SW7       30.14F
$$

TNZ008-025-027-028-033-062-065-066-282100-
NORTH MIDDLE TENNESSEE

CITY           SKY/WX    TMP DP  RH WIND       PRES   REMARKS
NASHVILLE      PTSUNNY   82  63  52 S3        30.16F
CLARKSVILLE    MOSUNNY   82  64  54 SE7       30.14F
SMYRNA         PTSUNNY   83  65  54 SW6       30.16F
COOKEVILLE     MOSUNNY   81  64  57 S6        30.17F
CROSSVILLE     PTSUNNY   75  62  64 VRB3      30.22F
$$

TNZ061-075-076-078-094-096-097-282100-
SOUTH MIDDLE TENNESSEE

CITY           SKY/WX    TMP DP  RH WIND       PRES   REMARKS
FAYETTEVILLE     N/A    N/A N/A N/A MISG      30.16F
TULLAHOMA      PTSUNNY   79  63  57 S3        30.17F
WINCHESTER     PTSUNNY   79  66  65 SE5       30.16F
MCMINNVILLE    SUNNY     81  66  61 VRB3      30.17F
COLUMBIA       MOSUNNY   82  66  57 S6        30.14F
SHELBYVILLE    MOSUNNY   82  66  57 CALM      30.17F
$$

TNZ017-018-042-046-047-282100-
NORTHEAST TENNESSEE

CITY           SKY/WX    TMP DP  RH WIND       PRES   REMARKS
TRI CITIES     PTSUNNY   85  56  37 CALM      30.17F THUNDER
ELIZABETHTON   CLEAR     82  63  51 SW3       30.18F
$$

TNZ012-013-036-069-073-074-282100-
CENTRAL EAST TENNESSEE

CITY           SKY/WX    TMP DP  RH WIND       PRES   REMARKS
KNOXVILLE      CLOUDY    78  65  63 NW6       30.18F
OAK RIDGE      CLOUDY    81  66  60 VRB5      30.19F
GATLINBURG       N/A     79  64  61 E5        30.18F
MORRISTOWN     CLEAR     82  64  54 CALM      30.19F
$$

TNZ083-085-099-282100-
SOUTHEAST TENNESSEE

CITY           SKY/WX    TMP DP  RH WIND       PRES   REMARKS
CHATTANOOGA    PTSUNNY   80  65  59 VRB3      30.16F
$$

SKY/WX REPORTED AS FAIR MEANS FEW OR NO CLOUDS BELOW
12 THOUSAND FEET.




USA.gov is the U.S. government's official web portal to all federal, state and local government web resources and services.